Temp
8 8 8 8 8 8 8 8 8 9 9 9 9 10 9 9 10 15 19 16 16 15 15 19 21 23 23 25 27 28 27 28 31 32 34 37 37 37 37 37 39 38 38 35 32
8 8 8 8 8 8 8 8 8 8 9 9 9 9 9 9 12 19 14 15 14 14 17 22 24 24 25 25 27 27 26 28 32 33 34 36 36 36 36 36 37 37 37 32 31
8 8 8 8 8 8 8 8 8 8 8 9 9 9 9 10 17 20 14 14 14 14 17 20 22 24 24 26 26 26 25 29 30 33 34 35 35 35 35 35 36 36 37 34 31
8 8 8 8 8 9 8 8 9 9 8 9 9 9 10 12 22 18 15 14 16 16 20 21 23 23 24 25 27 26 27 28 29 31 32 32 34 35 35 36 37 37 38 35 32
8 8 9 11 11 10 8 8 8 9 8 9 9 10 12 19 21 16 15 16 17 19 21 22 23 24 24 26 26 26 26 27 28 29 30 31 31 33 34 35 37 35 34 35 33
9 10 11 14 14 12 10 9 10 11 9 9 10 10 15 21 18 17 17 18 18 20 22 22 23 24 23 24 25 26 27 26 27 28 29 29 30 31 33 34 35 34 34 35 33
12 12 14 15 15 14 13 11 12 12 11 10 10 12 19 20 18 18 18 19 19 19 21 21 21 22 24 23 25 25 24 25 26 27 27 29 28 29 32 34 34 33 34 35 34
12 13 14 15 16 15 14 13 12 12 11 11 11 14 20 19 18 19 20 20 19 19 19 20 20 22 23 24 24 23 24 23 26 26 27 28 26 29 31 33 33 34 33 33 34
12 12 13 16 16 16 15 14 12 12 11 11 12 17 21 18 20 20 19 20 19 19 19 19 20 21 23 21 22 23 22 23 25 27 26 27 26 29 31 32 33 33 33 34 33
12 11 15 17 17 16 15 14 12 12 12 14 16 18 21 21 20 20 19 19 21 20 20 20 21 21 22 22 22 23 24 24 25 27 27 27 27 30 31 32 32 32 33 34 33
13 13 16 17 17 16 15 13 19 17 18 21 22 21 21 21 20 21 20 20 21 21 20 20 20 20 22 21 23 21 23 24 26 28 27 27 27 28 31 32 32 33 33 33 34
13 15 17 18 17 16 16 21 20 19 20 22 21 21 20 20 20 22 20 20 21 20 21 20 19 21 22 21 21 22 22 23 25 26 26 27 27 28 30 30 32 32 33 33 33
14 16 18 18 17 15 19 19 18 18 20 22 22 21 22 21 20 21 21 21 20 20 21 19 20 21 20 20 20 21 21 22 23 25 25 25 26 27 29 31 31 33 34 34 33
14 17 17 18 15 21 22 18 18 17 19 22 22 21 22 21 20 21 21 21 20 20 21 20 22 21 20 19 21 21 23 23 22 23 23 25 25 26 28 29 30 31 32 33 33
15 17 18 17 18 22 19 18 18 18 20 24 23 23 22 20 21 20 20 20 19 19 20 20 20 20 20 21 20 21 22 22 22 23 24 26 25 30 28 28 29 31 31 33 33
14 16 18 17 19 20 19 17 18 20 20 22 24 22 22 21 20 20 20 19 20 19 20 19 21 21 21 21 21 21 21 22 22 23 23 25 26 29 29 29 30 31 32 32 34
15 16 16 18 21 19 19 20 21 20 23 22 21 21 21 20 20 19 18 17 17 16 18 19 20 21 21 20 21 21 20 21 21 22 23 26 26 28 32 31 31 32 32 33 34
16 16 18 19 19 19 19 21 20 22 21 21 21 21 19 19 19 19 19 17 18 19 18 19 18 20 21 20 20 21 21 21 19 23 25 27 25 28 31 32 33 33 33 33 34
17 18 21 20 19 18 21 20 20 19 20 19 20 20 20 19 18 18 18 18 19 19 17 19 19 21 21 21 21 21 20 23 18 23 24 27 28 29 31 31 33 33 33 33 33
14 21 22 20 19 19 22 17 21 20 20 19 18 19 17 19 18 18 17 18 18 19 19 19 18 21 21 21 21 21 21 20 21 20 23 26 27 27 29 30 31 33 33 33 32
16 24 21 20 20 23 21 20 21 21 20 18 18 18 19 17 16 16 14 16 15 16 19 19 18 19 21 19 20 21 21 21 23 23 23 24 27 30 30 30 30 32 34 33 30
20 24 21 20 23 23 21 20 16 20 20 20 19 19 19 17 16 13 13 13 14 13 14 17 17 18 19 22 22 21 21 22 20 21 23 24 26 31 31 31 31 32 34 33 31
21 23 22 21 20 19 20 20 21 20 19 19 18 19 19 17 14 11 12 14 13 12 12 15 16 16 18 19 20 20 20 20 22 22 22 23 24 30 31 31 31 32 34 32 29
22 23 24 24 21 19 18 19 19 21 19 19 19 19 18 18 17 14 13 12 13 12 12 12 16 17 17 18 18 16 18 21 21 20 22 23 25 26 26 30 31 32 33 29 24
22 21 19 20 20 18 19 19 19 19 19 19 19 20 19 16 15 12 13 10 11 12 12 12 12 16 18 19 18 14 16 18 21 21 21 24 24 21 20 26 31 32 29 25 20
17 17 18 19 19 20 17 20 18 19 18 18 18 19 19 17 18 16 14 12 11 15 12 11 12 15 17 18 18 15 12 17 20 21 22 23 22 15 19 24 28 26 27 23 20
16 17 17 18 21 21 20 18 18 19 19 19 19 19 19 19 19 18 14 13 12 15 13 13 12 13 14 15 16 15 18 19 21 21 22 22 22 20 19 25 27 25 22 22 23
Height
823 821 818 815 812 809 807 805 802 800 798 796 794 791 788 785 781 776 771 774 773 772 770 767 763 758 758 750 745 741 747 737 722 716 706 681 689 688 692 694 684 686 695 701 715
822 819 816 813 810 807 805 803 801 799 796 794 791 789 786 784 781 769 774 774 773 771 768 761 754 753 750 747 741 741 743 732 711 701 699 687 687 694 700 698 694 692 693 709 717
821 818 815 811 808 805 803 801 798 796 794 791 789 787 784 783 774 763 773 774 772 770 769 764 759 752 748 739 737 736 742 723 713 701 691 688 690 691 699 702 694 698 693 706 719
819 816 813 809 806 803 801 798 796 793 790 788 786 784 782 782 761 769 773 772 770 768 766 761 757 753 748 742 733 738 729 726 719 706 702 703 692 692 696 691 684 687 685 696 712
818 814 811 808 804 801 799 796 793 790 788 785 784 783 781 769 762 772 773 772 770 767 762 757 754 748 746 735 731 733 730 724 720 714 710 707 709 701 695 687 682 687 694 692 705
816 812 809 806 803 800 797 794 791 788 786 785 783 783 779 761 772 772 772 770 769 765 758 758 751 746 745 740 734 727 725 724 721 721 717 716 715 706 695 691 687 693 698 693 703
815 810 807 804 802 798 795 792 789 788 786 784 784 783 773 770 771 770 769 766 766 765 761 757 757 755 742 742 732 732 735 729 726 720 720 716 723 713 700 691 690 695 698 696 695
813 808 804 802 800 797 793 790 789 787 786 785 784 783 766 771 770 768 765 762 764 763 763 759 760 754 746 738 736 740 735 738 720 718 715 717 720 705 697 693 694 693 698 700 697
811 805 801 799 797 795 792 790 788 787 786 785 784 779 764 769 765 765 765 762 762 762 762 762 761 753 743 747 740 731 737 730 722 704 716 713 716 697 689 690 689 691 695 696 697
809 803 799 796 795 793 791 788 787 787 785 785 781 779 763 764 763 764 763 763 759 759 759 761 754 750 742 740 734 722 718 715 709 699 701 706 709 690 686 685 690 691 690 692 696
807 801 797 794 792 791 788 786 783 784 780 768 765 765 761 764 762 760 761 760 757 755 753 751 753 747 730 737 725 733 716 708 693 688 694 700 701 697 682 680 680 683 687 689 691
805 798 796 793 791 790 787 781 782 783 773 765 766 765 766 767 760 754 760 759 752 751 747 752 753 741 732 739 737 728 726 721 703 691 696 695 698 690 684 684 679 681 683 685 688
803 797 795 792 790 787 784 784 783 782 772 758 761 761 760 763 761 754 758 751 751 748 744 753 742 740 742 744 739 734 735 724 713 701 704 703 702 691 681 676 677 670 672 677 682
802 797 794 791 791 783 779 784 783 783 770 759 755 758 755 753 755 754 751 753 749 745 741 744 731 738 740 747 733 731 717 718 719 718 712 697 705 689 680 679 675 674 673 674 679
801 797 794 790 789 782 786 783 782 781 767 749 750 751 749 757 751 753 752 751 750 747 747 737 739 736 739 732 736 730 719 723 721 717 708 683 698 654 670 677 674 671 672 672 672
800 796 793 791 785 785 783 782 781 774 771 754 745 750 747 744 748 750 751 754 746 749 741 740 733 730 728 729 730 731 727 723 716 709 711 686 683 662 659 664 663 663 664 670 665
798 795 793 792 787 784 782 777 771 777 754 757 759 752 747 752 748 750 753 753 756 758 737 733 730 725 727 732 723 730 730 722 720 711 702 673 681 655 632 642 644 650 655 662 660
795 794 793 790 787 784 779 771 779 764 767 761 759 752 755 757 750 748 745 747 739 738 740 729 730 720 719 728 723 717 718 714 726 697 679 660 678 659 635 627 631 637 645 654 654
795 792 789 788 786 782 773 779 781 778 771 770 759 756 751 753 753 750 742 738 734 736 744 726 722 710 713 718 717 718 720 702 729 689 683 655 656 644 635 636 630 633 641 651 653
800 789 786 787 783 780 770 793 774 773 773 770 769 761 765 750 756 749 746 737 738 730 731 726 731 710 711 715 715 714 715 720 713 714 694 661 657 660 652 646 636 633 638 646 652
799 784 786 785 781 769 778 779 773 771 774 777 770 768 758 759 761 759 762 749 751 744 731 728 728 719 710 719 711 714 714 710 701 695 691 680 656 629 636 642 642 633 632 641 655
798 784 787 785 776 772 775 779 785 773 769 768 765 759 758 758 757 769 763 762 759 757 750 736 731 726 718 700 698 705 705 705 714 708 692 682 664 617 624 628 634 631 628 636 651
800 787 785 786 792 791 780 778 773 773 771 769 767 759 756 758 764 772 763 755 758 760 756 742 736 730 714 712 705 705 708 710 699 697 696 691 674 625 619 625 630 629 626 635 652
801 792 782 778 783 791 789 779 777 767 769 766 764 758 752 752 753 759 756 757 753 753 754 756 734 724 719 710 714 726 713 698 702 706 695 682 659 648 646 630 628 627 625 642 666
807 802 806 795 790 793 787 780 774 773 770 764 759 751 752 755 755 759 751 757 751 748 750 750 742 723 712 702 706 721 718 704 691 691 693 674 671 679 679 649 626 625 634 661 681
826 821 813 799 795 784 784 776 778 774 773 766 763 755 748 748 742 737 740 746 749 733 745 749 738 722 708 696 693 707 719 701 686 686 679 676 680 704 687 661 638 642 641 666 681
830 826 819 797 780 779 777 780 778 770 764 762 757 753 743 736 733 729 735 738 740 730 736 733 736 726 711 707 699 701 681 677 673 675 672 680 681 695 692 661 642 644 654 667 676
Wind_Speed
17 16 15 14 14 14 14 14 14 14 13 14 14 16 17 15 19 19 14 6 5 9 7 11 10 11 15 16 19 17 17 21 27 26 23 21 21 15 20 21 22 16 12 17 17
16 16 15 15 14 14 14 14 13 14 12 12 14 13 15 13 16 14 4 1 2 4 9 9 8 9 12 15 17 18 16 27 25 21 24 26 18 16 21 21 23 12 13 19 15
16 16 15 15 14 14 14 14 15 14 14 14 14 13 13 11 16 7 4 2 7 7 10 9 11 10 15 16 20 21 22 21 25 25 22 19 23 14 21 21 21 20 15 19 14
18 16 15 14 14 14 15 15 16 16 16 15 13 12 11 11 3 7 1 2 5 7 8 8 10 13 15 17 18 24 24 21 27 22 18 19 16 18 22 25 16 23 17 21 18
18 17 15 14 15 15 16 16 17 17 16 11 8 7 9 8 5 2 4 6 8 5 10 8 10 10 16 15 16 20 23 22 21 21 18 18 19 21 20 13 5 8 4 16 15
20 18 16 13 14 16 17 17 18 14 10 5 3 2 8 0 3 1 2 5 9 9 8 9 9 10 14 15 16 17 21 16 21 22 22 15 20 22 18 19 14 9 7 10 17
23 19 16 14 14 16 17 16 13 9 5 2 1 4 7 7 0 3 5 6 6 10 11 10 9 9 8 13 16 15 20 16 26 21 26 20 21 26 23 20 17 12 12 14 15
27 22 17 14 14 15 15 16 8 4 2 1 2 6 2 1 4 6 5 7 5 9 13 8 8 14 13 16 7 14 18 18 23 25 22 22 26 25 24 23 24 19 13 11 12
30 25 17 12 12 13 11 14 4 1 3 3 6 7 4 4 5 5 5 7 3 5 11 5 12 14 13 13 15 18 16 23 25 28 27 26 22 23 26 23 20 19 17 14 10
33 27 16 12 11 10 9 8 5 1 2 8 10 7 6 7 10 7 4 6 6 4 9 11 11 14 13 13 15 10 21 19 23 23 27 30 24 23 24 29 24 20 21 17 16
36 26 14 11 11 6 10 4 4 7 12 7 6 5 3 10 4 1 2 5 7 7 12 7 11 14 16 12 23 12 15 13 12 17 22 22 25 25 16 20 22 23 17 18 16
37 22 11 12 8 5 8 10 10 8 8 7 4 4 5 6 10 4 2 8 7 12 6 7 12 15 8 10 15 13 13 16 14 10 7 15 23 26 25 20 19 21 22 22 18
37 18 10 11 4 5 5 10 10 4 7 9 1 6 5 8 9 6 4 10 12 13 10 12 12 7 7 13 12 14 17 16 17 11 16 15 18 22 26 22 22 18 22 19 19
34 13 9 10 4 11 10 11 7 2 4 5 6 4 4 9 2 7 11 10 13 14 11 12 16 13 9 9 17 15 15 13 13 11 13 20 12 23 25 25 24 22 19 21 20
33 10 8 6 11 13 12 10 3 5 3 7 2 1 8 9 11 4 3 7 16 13 11 12 8 8 12 13 11 14 7 11 15 15 16 17 12 17 28 25 26 25 24 19 22
31 6 8 4 9 13 10 7 5 6 5 8 11 17 14 6 1 4 5 7 11 13 16 20 14 11 11 9 6 12 11 14 14 14 13 19 13 18 25 29 27 27 25 23 23
23 3 5 7 11 13 10 8 6 4 15 10 20 17 14 12 10 3 9 12 7 7 13 15 19 18 12 14 12 11 15 10 10 11 13 19 13 21 22 27 30 29 28 27 24
13 4 6 6 14 12 11 9 5 12 12 18 16 16 7 9 11 16 15 15 14 12 12 13 8 18 15 19 14 11 15 9 6 10 13 17 16 16 18 11 27 27 28 26 25
11 4 4 12 12 10 9 4 6 10 14 16 17 11 12 9 7 10 19 17 12 11 8 7 5 1 11 16 19 16 15 14 8 16 11 12 11 17 15 14 24 27 29 26 25
15 8 4 14 11 10 5 3 8 6 13 12 15 8 17 19 11 16 13 7 9 6 12 9 8 6 11 8 17 16 10 10 8 9 13 14 21 11 18 15 14 25 29 27 23
8 5 7 15 9 6 5 7 12 11 10 9 15 17 17 15 13 15 6 14 10 10 11 12 9 7 9 11 15 12 15 15 14 12 10 12 12 15 16 19 19 23 28 28 21
9 5 10 17 8 7 5 9 5 11 13 13 10 16 16 18 18 7 7 4 8 10 5 10 7 11 17 12 15 10 16 18 11 17 13 16 16 5 18 20 18 24 27 28 27
8 7 3 13 6 8 12 14 6 12 13 14 11 15 18 18 9 8 7 4 6 4 6 4 7 8 12 6 7 14 17 19 19 17 19 14 16 15 17 15 21 27 28 27 26
6 6 5 7 2 12 14 11 12 9 12 11 17 16 16 18 16 10 11 5 9 10 14 5 11 13 13 8 5 15 24 24 23 16 19 19 23 13 14 14 22 27 27 28 23
6 5 5 7 11 14 14 14 16 15 9 15 10 16 20 19 15 3 7 5 10 14 7 6 7 16 21 24 14 18 24 31 28 25 24 24 20 17 22 24 11 27 29 29 23
7 5 7 13 10 13 5 12 14 17 18 17 15 20 21 18 17 25 13 1 6 5 9 5 4 13 22 21 21 14 20 29 31 27 27 29 13 5 28 31 20 17 31 27 25
12 10 6 10 10 11 9 13 19 18 10 11 17 19 20 22 22 18 4 7 8 7 11 6 5 4 7 6 8 10 19 27 27 30 28 25 19 13 29 22 8 27 27 27 26
Wind_Direction
350 347 343 337 335 332 329 325 324 324 322 319 319 315 317 309 316 294 259 1 317 297 297 278 266 237 229 240 232 226 246 241 242 237 247 250 209 220 236 245 240 172 246 98 138
349 344 340 334 333 332 332 329 326 323 319 315 309 310 313 311 306 274 47 8 305 309 283 268 247 224 228 229 224 230 234 243 246 251 249 246 242 207 227 226 240 225 128 112 146
348 342 340 332 333 334 331 330 323 318 316 312 305 305 304 311 281 91 138 344 327 295 270 282 280 268 247 231 225 216 241 255 251 260 267 250 246 219 238 223 220 219 180 149 161
345 340 336 334 333 333 329 326 323 318 311 307 302 302 300 294 344 101 246 296 353 289 247 254 252 250 246 244 225 238 241 244 267 270 264 271 254 215 232 230 217 224 226 160 168
345 339 336 337 332 328 328 324 324 318 310 310 305 310 309 221 59 75 304 272 286 269 262 262 270 253 255 257 248 235 252 237 252 262 273 247 258 265 232 233 194 91 198 157 174
346 337 332 337 336 332 323 325 330 328 331 314 303 320 265 61 25 340 312 290 260 262 260 272 273 305 290 277 259 263 248 254 253 241 254 244 243 249 245 220 218 159 213 206 177
348 336 329 328 331 331 326 324 339 347 355 319 215 286 261 60 244 288 287 291 288 263 267 235 283 270 266 268 250 262 266 249 238 235 241 234 242 238 235 233 232 196 215 204 198
352 338 327 326 328 331 323 328 338 348 1 16 152 262 27 91 303 274 318 289 275 258 248 296 259 272 271 266 262 255 247 249 235 234 238 234 240 228 236 226 211 199 202 197 205
356 343 326 322 328 333 326 332 334 302 296 197 243 246 86 211 234 331 303 314 320 231 229 253 254 257 245 245 244 227 243 231 247 210 223 224 234 252 210 226 223 198 210 197 209
358 349 332 323 328 333 324 316 274 204 247 245 263 244 191 351 331 305 273 282 253 178 208 226 239 241 236 241 243 252 222 243 224 227 207 225 224 245 224 206 218 218 213 206 194
357 350 340 335 336 344 328 198 251 203 216 320 348 310 312 342 262 202 249 248 241 223 245 237 250 244 228 278 271 281 287 252 242 218 205 221 225 224 238 220 213 209 214 209 192
355 350 346 341 350 356 304 360 1 306 295 202 290 278 268 332 304 233 222 248 206 261 260 222 249 287 273 231 261 281 271 267 279 267 225 236 219 230 215 231 212 213 209 202 179
356 352 352 343 331 276 314 4 329 299 255 165 262 314 359 301 317 307 284 261 267 269 250 262 258 216 291 273 254 243 254 257 263 239 231 248 236 224 225 214 226 215 205 192 192
355 353 350 339 298 335 17 342 329 296 259 139 169 146 289 274 285 250 283 274 273 270 276 258 252 255 231 233 270 256 229 260 285 268 242 204 231 215 213 214 214 210 213 195 199
354 349 351 351 318 1 336 335 327 230 288 11 349 45 251 265 318 178 305 277 273 277 268 255 277 238 243 247 218 268 356 275 246 245 258 230 223 219 198 206 210 207 203 207 195
352 350 0 323 259 355 330 323 246 235 5 334 356 334 325 6 320 260 243 268 275 259 263 258 247 266 259 303 229 269 275 248 248 244 233 242 213 225 182 201 203 202 194 196 198
348 261 358 336 337 331 323 270 257 22 341 356 334 333 327 335 337 313 282 259 248 248 262 235 236 237 244 256 233 229 252 241 213 216 236 202 228 253 175 197 200 194 188 191 192
351 261 300 325 331 319 297 265 315 8 334 336 327 314 328 2 334 327 307 275 258 244 283 275 236 215 201 245 244 233 242 254 295 199 222 231 203 228 249 223 200 195 182 190 181
346 263 262 337 328 309 281 322 0 335 326 325 318 330 329 340 319 310 314 299 269 204 238 313 317 303 196 216 240 229 233 263 302 272 269 196 211 217 234 226 191 195 176 188 180
338 293 51 338 317 285 303 287 351 348 325 321 313 327 317 317 334 335 321 322 308 225 245 295 292 227 176 234 228 234 285 244 234 274 250 241 195 224 195 211 221 198 176 180 169
301 294 24 340 307 280 350 325 324 341 347 325 318 313 314 336 317 320 284 312 315 319 260 273 254 219 191 210 227 200 230 235 258 253 276 256 224 197 195 202 201 205 179 174 161
308 319 13 336 294 350 342 334 330 316 321 315 292 299 323 327 311 284 251 246 302 332 284 276 301 268 231 231 237 261 220 228 230 229 257 275 280 294 205 184 208 212 179 168 162
328 298 110 349 9 340 336 322 298 305 319 309 293 309 312 311 311 236 271 261 285 257 239 262 231 261 258 237 244 232 219 251 242 254 262 261 253 255 188 212 194 207 178 156 164
320 334 348 303 138 350 336 321 326 325 319 311 306 291 291 326 324 285 276 264 239 237 238 251 255 249 267 280 192 217 255 224 236 234 238 243 245 306 322 200 187 212 167 153 139
348 2 22 311 332 327 304 311 319 332 324 307 288 311 335 318 320 263 277 261 258 243 214 220 251 261 269 267 228 225 223 237 226 228 228 233 242 294 305 313 212 205 149 146 144
339 340 336 291 313 312 330 322 321 323 318 302 301 312 312 307 326 319 328 225 262 143 198 194 252 268 277 274 271 219 211 247 226 225 230 236 229 306 283 288 286 277 148 147 152
354 331 275 286 319 319 335 320 309 309 312 298 303 309 306 339 322 312 194 232 229 276 199 224 225 235 255 314 293 248 225 216 207 216 228 229 233 217 267 265 249 149 148 152 152